Location: Atherton
(17.2661°S, 145.4859°E)
Time: 23:37:26
(UTC+10:00)

ARIANE 6 FM1 Upper Stage - Pass Details

Date: 25 May 2025
Orbit: 531 x 610 km, 62.0° (Epoch: 15 June)

Event Time Altitude Azimuth Distance (km) Brightness Sun altitude
Rises 05:24:12 0° 352° (N) 2,816 6.4 -17.6°
Reaches altitude 10° 05:26:35 10° 2° (N) 1,931 5.6 -17.0°
Maximum altitude 05:30:33 34° 67° (ENE) 1,013 4.7 -16.1°
Drops below altitude 10° 05:34:35 10° 131° (SE) 1,972 5.9 -15.2°
Sets 05:37:02 0° 140° (SE) 2,884 6.6 -14.7°
